Greenwood, SC

10:01 PM EST on January 22, 2018 (GMT -0500)
Greenwood County

Weather History for KGRD - April, 2013

Change the Weather History Date:

Saturday, April 27, 2013

  Actual Average (KAND) Record (KAND)
Temperature  
Mean Temperature 57 °F -  
Max Temperature 63 °F 76 °F 93 °F (1986)
Min Temperature 52 °F 50 °F 37 °F (1992)
Degree Days  
Heating Degree Days 8    
Growing Degree Days 7 (Base 50)    
Moisture  
Dew Point 52 °F    
Average Humidity 79    
Maximum Humidity 97    
Minimum Humidity 60    
Precipitation  
Precipitation 0.10 in - - ()
Sea Level Pressure  
Sea Level Pressure 30.32 in    
Wind  
Wind Speed 5 mph (East)    
Max Wind Speed 12 mph    
Max Gust Speed -    
Visibility 10 miles    
Events Rain    
Averages and records for this station are not official NWS values.
T = Trace of Precipitation, MM = Missing Value Source: NWS Daily Summary

Daily Weather History Graph

Daily Weather History Graph

Search for Another Location

Airport or City:

Trip Planner

Search our weather history database for the weather conditions in past years. The results will help you decide how hot, cold, wet, or windy it might be!

Date:

Astronomy

Apr. 27, 2013 Rise Set
Actual Time 6:43 AM EDT 8:09 PM EDT
Civil Twilight 6:16 AM EDT 8:36 PM EDT
Nautical Twilight 5:44 AM EDT 9:08 PM EDT
Astronomical Twilight 5:11 AM EDT 9:41 PM EDT
Moon 10:33 PM EDT (4/27) 8:04 AM EDT (4/27)
Length of Visible Light 14h 19m
Length of Day
13h 26m
Waning Gibbous, 95% of the Moon is Illuminated
Apr 27
Waning Gibbous
May 2
Last Quarter
May 9
New
May 18
First Quarter
May 25
Full

Hourly Weather History & Observations

Time (EDT) Temp. Dew Point Humidity Pressure Visibility Wind Dir Wind Speed Gust Speed Precip Events Conditions
12:56 AM 61.0 °F 50.0 °F 67% 30.35 in 10.0 mi SSE 8.1 mph - N/A   Clear
1:56 AM 62.1 °F 48.0 °F 60% 30.34 in 10.0 mi South 4.6 mph - N/A   Overcast
2:56 AM 61.0 °F 48.0 °F 62% 30.33 in 10.0 mi SSW 5.8 mph - 0.00 in   Mostly Cloudy
3:56 AM 57.9 °F 46.0 °F 65% 30.36 in 10.0 mi SW 11.5 mph - 0.00 in   Overcast
4:56 AM 55.0 °F 46.0 °F 72% 30.34 in 10.0 mi SW 6.9 mph - 0.00 in Rain Light Rain
5:56 AM 54.0 °F 48.9 °F 83% 30.34 in 10.0 mi WSW 5.8 mph - 0.01 in Rain Light Rain
6:56 AM 53.1 °F 50.0 °F 89% 30.36 in 9.0 mi SW 4.6 mph - 0.01 in Rain Light Rain
7:56 AM 52.0 °F 48.9 °F 89% 30.37 in 6.0 mi Calm Calm - 0.08 in Rain Light Rain
8:56 AM 54.0 °F 48.9 °F 83% 30.35 in 10.0 mi ESE 3.5 mph - 0.00 in   Overcast
9:56 AM 55.9 °F 50.0 °F 80% 30.37 in 10.0 mi Calm Calm - N/A   Overcast
10:56 AM 57.9 °F 52.0 °F 81% 30.36 in 10.0 mi East 4.6 mph - N/A   Mostly Cloudy
11:56 AM 61.0 °F 52.0 °F 72% 30.36 in 10.0 mi Variable 4.6 mph - N/A   Overcast
12:56 PM 62.1 °F 52.0 °F 70% 30.35 in 10.0 mi Calm Calm - 0.00 in   Overcast
1:56 PM 62.1 °F 54.0 °F 75% 30.35 in 10.0 mi NNE 4.6 mph - 0.00 in   Overcast
2:56 PM 61.0 °F 53.1 °F 75% 30.34 in 10.0 mi ENE 3.5 mph - N/A   Overcast
3:56 PM 61.0 °F 54.0 °F 78% 30.32 in 10.0 mi NE 6.9 mph - 0.00 in   Overcast
4:56 PM 61.0 °F 55.0 °F 81% 30.31 in 10.0 mi NE 6.9 mph - N/A   Overcast
5:35 PM 60.8 °F 55.4 °F 82% 30.32 in 10.0 mi NE 4.6 mph - N/A   Overcast
5:56 PM 61.0 °F 55.0 °F 81% 30.31 in 10.0 mi NE 5.8 mph - N/A   Overcast
6:21 PM 60.8 °F 53.6 °F 77% 30.30 in 10.0 mi ENE 4.6 mph - N/A   Overcast
6:56 PM 60.1 °F 55.0 °F 83% 30.29 in 10.0 mi ENE 3.5 mph - N/A   Overcast
7:56 PM 57.9 °F 54.0 °F 87% 30.27 in 10.0 mi ENE 4.6 mph - N/A   Overcast
8:56 PM 57.9 °F 55.0 °F 90% 30.26 in 10.0 mi ENE 3.5 mph - N/A   Overcast
9:56 PM 57.0 °F 55.0 °F 93% 30.26 in 10.0 mi NE 3.5 mph - N/A   Mostly Cloudy
10:56 PM 55.9 °F 55.0 °F 97% 30.25 in 8.0 mi ENE 3.5 mph - N/A   Mostly Cloudy
11:56 PM 57.0 °F 55.0 °F 93% 30.23 in 9.0 mi ENE 3.5 mph - N/A   Overcast